SCP
0 0 0 0 0 0 0 0 0 0 0 0 0 0 0 0 0 0 0 0 0 0 0 0 1 1 2 1 0 1 1 1 0 0 0 0 0 0 0 0 0 0 0
0 0 0 0 0 0 0 0 0 0 0 0 0 0 0 0 0 0 0 0 0 0 0 0 0 0 2 2 1 1 1 0 0 0 0 0 0 0 0 0 0 0 0
0 0 0 0 0 0 0 0 0 0 0 0 0 0 0 0 0 0 0 0 0 0 0 0 0 0 0 0 1 1 1 1 -0 0 0 0 0 0 0 0 0 0 0
0 0 0 0 0 0 0 0 0 0 0 0 0 0 0 0 0 0 0 0 0 0 0 0 0 0 0 0 0 0 0 0 1 1 0 0 0 0 0 0 0 0 0
0 0 1 0 0 0 0 0 0 0 0 0 0 0 0 0 0 0 0 0 0 0 0 0 0 0 0 0 0 0 0 1 1 1 1 1 1 1 0 0 0 0 0
1 1 0 0 0 0 0 0 0 0 0 0 0 0 0 0 0 0 0 0 0 0 0 0 0 0 0 0 0 0 0 0 1 1 1 2 1 1 1 0 0 0 0
1 0 0 0 0 0 0 0 0 0 0 0 0 0 0 0 0 0 0 0 0 0 0 0 0 0 0 0 0 0 0 0 0 0 1 1 2 2 1 1 1 0 0
0 0 0 0 0 -0 0 0 0 0 0 -0 -0 -0 0 0 0 0 0 0 0 0 0 0 0 0 0 0 0 0 0 0 0 0 0 0 1 2 1 2 2 1 1
0 0 0 0 0 0 0 0 0 0 -0 -0 0 -0 0 0 0 0 0 0 0 -0 0 0 0 0 0 0 0 0 0 0 0 0 0 0 0 1 1 2 2 1 1
0 0 0 0 0 0 0 0 0 0 -0 -0 -0 0 0 0 0 0 0 0 0 0 0 0 0 0 0 0 0 0 0 0 0 0 0 0 0 0 0 1 1 1 1
0 0 0 0 0 0 0 0 0 0 0 -0 0 0 0 0 0 0 0 0 0 0 0 0 0 0 0 0 0 0 0 0 0 0 0 0 0 0 0 0 0 0 1
0 0 0 0 0 0 0 0 0 0 0 0 0 0 0 0 0 0 0 0 0 0 0 0 0 0 0 0 0 0 0 0 0 0 0 0 0 0 0 0 0 0 0
0 0 0 0 0 0 0 0 0 0 0 0 0 0 0 0 0 0 0 0 0 0 0 0 0 0 0 0 0 0 0 0 0 0 0 0 0 0 0 0 0 0 0
0 0 0 0 0 0 0 0 0 0 0 0 0 0 0 0 0 0 0 0 0 0 0 0 0 0 0 0 0 0 0 0 0 0 0 0 0 0 0 0 0 0 0
0 0 0 0 0 0 0 0 0 0 0 0 0 0 0 0 0 0 0 0 0 0 0 0 0 0 0 0 0 0 0 0 0 0 0 0 0 0 0 0 0 0 0
0 0 0 0 0 0 0 0 0 0 0 0 0 0 0 0 0 0 0 0 0 0 0 0 0 0 0 0 0 0 0 0 0 0 0 0 0 0 0 0 0 0 0
0 0 0 0 0 0 0 0 0 0 0 0 0 0 0 0 0 0 0 0 0 0 0 0 0 0 0 0 0 0 0 0 0 0 0 0 0 0 0 0 0 0 0
0 0 0 0 0 0 0 0 0 0 0 0 0 0 0 0 0 0 0 0 0 0 0 0 0 0 0 0 0 0 0 0 0 0 0 0 0 0 0 0 0 0 0
0 0 0 0 0 0 0 0 0 0 0 0 0 0 0 0 0 0 0 0 0 0 0 0 0 0 0 0 0 0 0 0 0 0 0 0 0 0 0 0 0 0 0
0 0 0 0 0 0 0 0 0 0 0 0 0 0 0 0 0 0 0 0 0 0 0 0 0 0 0 0 0 0 0 0 0 0 0 0 0 0 0 0 0 0 0
0 0 0 0 0 0 0 0 0 0 0 0 0 0 0 0 0 0 0 0 0 0 0 0 0 0 0 0 0 0 0 0 0 0 0 0 0 0 0 0 0 0 0
0 0 0 0 0 0 0 0 0 0 0 0 0 0 0 0 0 0 0 0 0 0 0 0 0 0 0 0 0 0 0 0 0 0 0 0 0 0 0 0 0 0 0
0 0 0 0 0 0 0 0 0 0 0 0 0 0 0 0 0 0 0 0 0 0 0 0 0 0 0 0 0 0 0 0 0 0 0 0 0 0 0 0 0 0 0
0 0 0 0 0 0 0 0 0 0 0 0 0 0 0 0 0 0 0 0 0 0 0 0 0 0 0 0 0 0 0 0 0 0 0 0 0 0 0 0 0 0 0
0 0 0 0 0 0 0 0 0 0 0 0 0 0 0 0 0 0 0 0 0 0 0 0 0 0 0 0 0 0 0 0 0 0 0 0 0 0 0 0 0 0 0
0 0 0 0 0 0 0 0 0 0 0 0 0 0 0 0 0 0 0 0 0 0 0 0 0 0 0 0 0 0 0 0 0 0 0 0 0 0 0 0 0 0 0
Wind_Speed_500mb
24 21 18 16 15 10 9 10 13 19 24 29 35 42 48 51 50 51 49 49 49 51 53 56 58 57 53 54 46 42 49 45 41 41 39 45 45 44 42 42 35 38 43
23 19 15 14 14 11 9 8 14 20 27 34 39 47 50 51 49 47 46 44 44 46 48 48 47 47 49 48 44 34 34 45 33 41 42 37 48 46 46 38 34 36 42
23 18 16 17 16 19 15 13 19 27 32 39 45 45 44 46 45 41 40 40 39 38 36 36 35 35 33 34 29 25 27 30 41 40 40 38 36 38 39 43 42 38 39
25 21 17 17 22 23 21 21 24 32 38 42 42 39 42 44 41 38 37 39 40 39 38 36 34 33 32 31 33 34 43 47 47 45 42 38 33 34 36 37 41 40 38
26 22 20 22 25 21 23 29 32 32 33 33 38 36 40 38 37 34 36 34 33 36 39 39 38 35 30 30 33 37 43 43 41 41 40 39 35 35 34 32 35 36 37
29 29 25 20 23 18 24 28 27 24 28 34 38 39 33 32 29 33 37 39 41 36 41 45 43 38 34 30 30 34 39 40 41 42 42 40 38 38 40 39 38 36 39
36 33 29 16 29 21 22 16 19 21 30 38 45 50 39 34 17 36 48 45 28 49 52 47 43 41 36 29 29 28 27 29 37 44 44 40 38 41 43 47 55 54 49
36 30 30 24 26 33 16 13 15 26 32 42 46 39 32 37 28 31 14 29 59 45 50 46 42 37 34 27 21 24 27 25 27 35 38 39 39 39 37 38 42 44 43
33 40 26 24 25 14 14 10 21 28 38 43 45 35 16 16 64 35 43 44 40 65 51 45 37 36 36 34 31 26 24 25 25 27 32 36 40 37 37 37 37 36 39
48 31 23 27 22 15 9 15 24 32 41 44 42 38 35 34 22 37 42 54 67 60 56 40 28 38 42 40 37 36 34 32 31 29 27 28 35 37 38 42 43 42 45
25 30 31 28 20 9 12 19 29 36 43 45 46 44 47 45 30 34 60 71 71 61 52 34 45 51 43 43 50 42 35 42 40 37 35 29 31 31 32 39 45 46 43
38 29 31 30 13 9 14 24 32 40 45 47 45 45 44 43 43 41 54 66 64 64 47 43 59 47 57 54 48 41 34 31 38 42 40 38 32 30 29 29 36 40 41
27 41 37 19 10 10 19 27 35 43 48 49 49 45 42 39 40 44 48 53 52 47 38 47 47 50 57 51 49 44 34 26 28 34 40 42 41 35 30 29 31 33 37
42 39 24 16 11 14 21 33 42 49 51 49 45 43 41 38 39 42 41 43 46 35 39 52 46 51 50 48 48 45 38 29 26 31 32 36 40 43 38 31 31 34 39
45 34 23 15 14 19 29 38 46 50 49 47 46 44 40 38 35 33 32 34 40 36 43 32 60 46 48 49 46 46 41 36 29 31 33 35 37 36 39 37 35 35 37
42 32 23 19 18 25 34 42 48 47 46 48 46 38 37 35 30 28 33 37 36 40 32 51 46 49 48 48 42 44 44 38 34 32 39 39 42 37 36 35 34 38 39
39 28 23 19 22 31 40 47 46 46 47 42 36 37 35 31 29 36 33 32 34 36 41 55 57 56 53 51 42 40 42 42 38 34 30 37 45 44 37 37 34 35 41
35 28 21 23 30 35 42 44 43 45 41 36 36 35 30 28 33 34 37 31 34 37 46 61 61 61 61 57 54 46 41 39 38 36 34 32 37 41 42 37 38 34 39
28 21 23 26 33 38 39 41 40 38 34 36 36 33 30 31 37 38 36 34 35 40 48 57 65 61 66 68 63 54 48 42 36 33 37 34 30 33 41 40 37 39 39
19 20 23 28 34 36 36 36 35 34 33 35 35 33 33 34 35 37 36 38 38 47 52 59 68 75 71 63 57 56 56 46 44 42 30 30 35 37 38 40 42 42 41
19 22 26 30 30 30 32 34 38 37 33 35 35 37 34 32 34 36 35 36 43 49 52 60 70 74 69 62 59 56 53 54 51 43 43 50 48 45 39 33 40 45 45
16 18 22 23 28 28 29 33 34 36 39 43 45 37 38 34 33 36 36 35 46 48 51 57 65 67 66 60 58 54 51 50 54 45 52 61 51 45 42 37 32 43 48
15 19 23 24 24 26 27 29 35 40 45 40 40 39 35 36 33 34 32 36 40 40 50 59 62 62 61 56 53 54 49 47 53 56 52 59 45 38 31 32 29 33 43
16 21 24 23 23 23 27 33 40 40 37 38 38 36 36 37 36 35 28 38 45 42 50 59 62 61 55 50 45 45 45 46 48 46 35 37 33 22 21 23 14 14 25
19 21 21 20 20 23 30 38 41 40 34 33 33 32 33 36 37 36 37 44 50 49 55 61 63 58 43 37 34 35 34 35 37 40 37 23 21 23 16 12 11 8 7
17 17 18 21 27 31 34 38 38 37 35 34 31 29 29 33 36 37 39 46 53 54 63 68 63 47 41 38 34 26 28 28 27 26 12 20 19 20 15 7 11 19 4
Wind_Direction_500mb
224 218 213 224 232 252 276 291 310 317 316 321 326 326 326 320 316 311 307 306 305 305 307 307 306 305 305 305 305 300 305 293 298 293 293 283 280 271 264 257 257 262 264
215 225 232 243 260 269 282 292 309 315 315 315 321 321 319 314 313 311 309 310 310 309 308 308 307 304 300 300 305 296 305 296 289 298 301 285 273 270 271 261 258 260 260
223 229 247 247 270 282 290 286 317 314 309 309 316 320 319 314 313 312 313 313 313 315 316 314 314 311 309 302 287 278 292 274 283 286 302 292 284 272 262 260 260 257 252
221 228 252 269 283 287 282 290 301 304 308 314 319 326 318 312 308 306 312 315 316 315 314 315 318 313 306 298 288 273 264 272 286 280 295 290 281 277 266 258 258 256 254
229 230 250 266 284 288 292 289 300 306 312 321 328 332 324 318 314 313 321 325 328 331 332 327 317 306 311 306 297 289 284 286 287 283 287 285 283 278 268 264 257 252 252
245 239 244 253 270 274 295 300 306 313 329 336 336 339 334 326 318 309 322 323 332 334 338 336 325 315 302 301 301 296 289 286 283 283 281 277 279 278 264 257 252 258 256
247 248 239 259 268 277 292 303 312 335 342 344 346 349 348 340 323 323 314 322 329 333 339 335 326 315 314 307 302 309 314 297 286 283 284 277 270 270 268 259 254 260 258
241 252 253 261 289 303 283 296 330 352 350 353 359 354 347 342 327 329 267 326 335 339 345 346 338 333 323 315 315 303 307 310 296 284 287 286 282 271 269 263 255 248 246
239 244 257 267 278 238 258 321 354 355 1 358 355 4 352 322 331 324 314 327 332 341 349 344 338 333 326 318 303 302 307 308 305 298 288 290 285 282 265 258 250 248 244
222 234 257 277 220 235 283 348 351 353 355 355 357 356 349 335 325 316 313 329 328 340 346 345 343 331 323 317 314 306 291 299 300 302 301 297 290 287 276 261 256 251 247
218 240 243 209 216 247 331 343 348 350 351 349 348 343 337 335 328 309 308 318 327 337 342 339 337 332 330 325 319 310 304 281 289 291 293 295 295 290 280 272 261 259 257
236 221 196 214 229 285 335 343 343 347 344 340 335 335 331 328 318 316 311 321 323 335 340 334 337 331 330 332 328 316 303 292 284 284 286 286 291 290 285 277 267 259 256
219 194 201 207 241 311 330 338 338 339 336 331 330 327 328 323 320 318 316 319 322 337 337 334 334 330 338 345 347 338 319 305 290 289 281 278 281 284 284 279 273 266 256
190 203 203 218 260 306 324 333 333 331 327 323 324 324 325 320 319 317 319 324 329 330 329 337 333 337 350 347 345 347 338 314 297 292 291 282 277 278 279 278 272 269 261
201 208 213 232 270 307 325 327 324 324 322 324 324 326 322 322 323 321 320 325 327 324 329 324 328 339 341 336 340 346 341 330 298 289 291 289 283 281 280 273 268 266 267
203 210 221 249 290 314 319 318 320 321 322 322 323 326 327 325 321 315 318 320 318 319 312 318 327 330 335 333 339 338 337 335 331 302 286 285 285 280 278 277 266 259 263
207 218 241 270 300 313 315 318 317 320 321 323 331 331 328 323 318 318 323 326 322 324 318 319 326 337 336 337 335 335 332 332 330 329 312 287 281 281 278 275 272 256 256
205 222 251 287 305 310 314 314 320 323 324 333 337 330 322 319 316 328 328 323 331 327 319 314 330 335 334 339 334 331 334 329 324 323 321 319 293 282 274 269 266 264 250
217 244 272 299 307 310 312 316 322 322 331 339 337 330 328 322 324 323 325 324 323 322 320 321 323 327 329 329 327 326 327 326 329 322 319 322 319 302 283 268 258 261 256
233 270 292 300 305 309 313 316 317 327 333 340 340 327 326 322 312 309 312 320 321 323 324 324 325 328 326 334 333 329 324 322 322 324 318 315 322 324 308 275 255 248 253
256 277 296 305 307 308 314 315 323 332 336 340 340 329 323 317 306 294 310 316 316 320 323 327 328 326 327 330 327 323 318 322 319 325 322 321 328 329 322 290 260 243 244
269 296 303 307 312 314 318 318 326 333 341 341 331 333 323 316 307 295 307 303 315 319 326 330 327 326 325 320 319 312 311 315 313 315 314 315 324 325 322 302 275 245 236
303 311 316 322 318 321 319 323 330 340 337 342 336 332 319 315 312 303 304 309 312 317 326 327 327 330 321 317 310 308 307 304 299 306 314 311 323 331 332 315 290 257 236
316 325 329 332 332 331 327 328 333 332 342 337 332 322 319 316 314 308 302 306 311 321 322 325 323 324 316 308 302 297 297 299 302 308 321 312 330 342 342 12 329 287 251
338 342 342 344 340 331 330 332 334 337 343 336 326 322 316 313 316 305 304 310 313 324 322 322 322 324 326 319 308 296 299 301 308 316 325 308 337 321 321 359 34 31 256
349 350 347 335 335 338 335 336 336 338 343 336 329 328 327 323 318 312 307 313 316 320 322 324 330 334 337 343 341 313 294 288 294 313 307 320 321 331 325 305 21 43 218
Wind_Speed_850mb
24 21 18 16 15 10 9 10 13 19 24 29 35 42 48 51 50 51 49 49 49 51 53 56 58 57 53 54 46 42 49 45 41 41 39 45 45 44 42 42 35 38 43
23 19 15 14 14 11 9 8 14 20 27 34 39 47 50 51 49 47 46 44 44 46 48 48 47 47 49 48 44 34 34 45 33 41 42 37 48 46 46 38 34 36 42
23 18 16 17 16 19 15 13 19 27 32 39 45 45 44 46 45 41 40 40 39 38 36 36 35 35 33 34 29 25 27 30 41 40 40 38 36 38 39 43 42 38 39
25 21 17 17 22 23 21 21 24 32 38 42 42 39 42 44 41 38 37 39 40 39 38 36 34 33 32 31 33 34 43 47 47 45 42 38 33 34 36 37 41 40 38
26 22 20 22 25 21 23 29 32 32 33 33 38 36 40 38 37 34 36 34 33 36 39 39 38 35 30 30 33 37 43 43 41 41 40 39 35 35 34 32 35 36 37
29 29 25 20 23 18 24 28 27 24 28 34 38 39 33 32 29 33 37 39 41 36 41 45 43 38 34 30 30 34 39 40 41 42 42 40 38 38 40 39 38 36 39
36 33 29 16 29 21 22 16 19 21 30 38 45 50 39 34 17 36 48 45 28 49 52 47 43 41 36 29 29 28 27 29 37 44 44 40 38 41 43 47 55 54 49
36 30 30 24 26 33 16 13 15 26 32 42 46 39 32 37 28 31 14 29 59 45 50 46 42 37 34 27 21 24 27 25 27 35 38 39 39 39 37 38 42 44 43
33 40 26 24 25 14 14 10 21 28 38 43 45 35 16 16 64 35 43 44 40 65 51 45 37 36 36 34 31 26 24 25 25 27 32 36 40 37 37 37 37 36 39
48 31 23 27 22 15 9 15 24 32 41 44 42 38 35 34 22 37 42 54 67 60 56 40 28 38 42 40 37 36 34 32 31 29 27 28 35 37 38 42 43 42 45
25 30 31 28 20 9 12 19 29 36 43 45 46 44 47 45 30 34 60 71 71 61 52 34 45 51 43 43 50 42 35 42 40 37 35 29 31 31 32 39 45 46 43
38 29 31 30 13 9 14 24 32 40 45 47 45 45 44 43 43 41 54 66 64 64 47 43 59 47 57 54 48 41 34 31 38 42 40 38 32 30 29 29 36 40 41
27 41 37 19 10 10 19 27 35 43 48 49 49 45 42 39 40 44 48 53 52 47 38 47 47 50 57 51 49 44 34 26 28 34 40 42 41 35 30 29 31 33 37
42 39 24 16 11 14 21 33 42 49 51 49 45 43 41 38 39 42 41 43 46 35 39 52 46 51 50 48 48 45 38 29 26 31 32 36 40 43 38 31 31 34 39
45 34 23 15 14 19 29 38 46 50 49 47 46 44 40 38 35 33 32 34 40 36 43 32 60 46 48 49 46 46 41 36 29 31 33 35 37 36 39 37 35 35 37
42 32 23 19 18 25 34 42 48 47 46 48 46 38 37 35 30 28 33 37 36 40 32 51 46 49 48 48 42 44 44 38 34 32 39 39 42 37 36 35 34 38 39
39 28 23 19 22 31 40 47 46 46 47 42 36 37 35 31 29 36 33 32 34 36 41 55 57 56 53 51 42 40 42 42 38 34 30 37 45 44 37 37 34 35 41
35 28 21 23 30 35 42 44 43 45 41 36 36 35 30 28 33 34 37 31 34 37 46 61 61 61 61 57 54 46 41 39 38 36 34 32 37 41 42 37 38 34 39
28 21 23 26 33 38 39 41 40 38 34 36 36 33 30 31 37 38 36 34 35 40 48 57 65 61 66 68 63 54 48 42 36 33 37 34 30 33 41 40 37 39 39
19 20 23 28 34 36 36 36 35 34 33 35 35 33 33 34 35 37 36 38 38 47 52 59 68 75 71 63 57 56 56 46 44 42 30 30 35 37 38 40 42 42 41
19 22 26 30 30 30 32 34 38 37 33 35 35 37 34 32 34 36 35 36 43 49 52 60 70 74 69 62 59 56 53 54 51 43 43 50 48 45 39 33 40 45 45
16 18 22 23 28 28 29 33 34 36 39 43 45 37 38 34 33 36 36 35 46 48 51 57 65 67 66 60 58 54 51 50 54 45 52 61 51 45 42 37 32 43 48
15 19 23 24 24 26 27 29 35 40 45 40 40 39 35 36 33 34 32 36 40 40 50 59 62 62 61 56 53 54 49 47 53 56 52 59 45 38 31 32 29 33 43
16 21 24 23 23 23 27 33 40 40 37 38 38 36 36 37 36 35 28 38 45 42 50 59 62 61 55 50 45 45 45 46 48 46 35 37 33 22 21 23 14 14 25
19 21 21 20 20 23 30 38 41 40 34 33 33 32 33 36 37 36 37 44 50 49 55 61 63 58 43 37 34 35 34 35 37 40 37 23 21 23 16 12 11 8 7
17 17 18 21 27 31 34 38 38 37 35 34 31 29 29 33 36 37 39 46 53 54 63 68 63 47 41 38 34 26 28 28 27 26 12 20 19 20 15 7 11 19 4
Wind_Direction_850mb
224 218 213 224 232 252 276 291 310 317 316 321 326 326 326 320 316 311 307 306 305 305 307 307 306 305 305 305 305 300 305 293 298 293 293 283 280 271 264 257 257 262 264
215 225 232 243 260 269 282 292 309 315 315 315 321 321 319 314 313 311 309 310 310 309 308 308 307 304 300 300 305 296 305 296 289 298 301 285 273 270 271 261 258 260 260
223 229 247 247 270 282 290 286 317 314 309 309 316 320 319 314 313 312 313 313 313 315 316 314 314 311 309 302 287 278 292 274 283 286 302 292 284 272 262 260 260 257 252
221 228 252 269 283 287 282 290 301 304 308 314 319 326 318 312 308 306 312 315 316 315 314 315 318 313 306 298 288 273 264 272 286 280 295 290 281 277 266 258 258 256 254
229 230 250 266 284 288 292 289 300 306 312 321 328 332 324 318 314 313 321 325 328 331 332 327 317 306 311 306 297 289 284 286 287 283 287 285 283 278 268 264 257 252 252
245 239 244 253 270 274 295 300 306 313 329 336 336 339 334 326 318 309 322 323 332 334 338 336 325 315 302 301 301 296 289 286 283 283 281 277 279 278 264 257 252 258 256
247 248 239 259 268 277 292 303 312 335 342 344 346 349 348 340 323 323 314 322 329 333 339 335 326 315 314 307 302 309 314 297 286 283 284 277 270 270 268 259 254 260 258
241 252 253 261 289 303 283 296 330 352 350 353 359 354 347 342 327 329 267 326 335 339 345 346 338 333 323 315 315 303 307 310 296 284 287 286 282 271 269 263 255 248 246
239 244 257 267 278 238 258 321 354 355 1 358 355 4 352 322 331 324 314 327 332 341 349 344 338 333 326 318 303 302 307 308 305 298 288 290 285 282 265 258 250 248 244
222 234 257 277 220 235 283 348 351 353 355 355 357 356 349 335 325 316 313 329 328 340 346 345 343 331 323 317 314 306 291 299 300 302 301 297 290 287 276 261 256 251 247
218 240 243 209 216 247 331 343 348 350 351 349 348 343 337 335 328 309 308 318 327 337 342 339 337 332 330 325 319 310 304 281 289 291 293 295 295 290 280 272 261 259 257
236 221 196 214 229 285 335 343 343 347 344 340 335 335 331 328 318 316 311 321 323 335 340 334 337 331 330 332 328 316 303 292 284 284 286 286 291 290 285 277 267 259 256
219 194 201 207 241 311 330 338 338 339 336 331 330 327 328 323 320 318 316 319 322 337 337 334 334 330 338 345 347 338 319 305 290 289 281 278 281 284 284 279 273 266 256
190 203 203 218 260 306 324 333 333 331 327 323 324 324 325 320 319 317 319 324 329 330 329 337 333 337 350 347 345 347 338 314 297 292 291 282 277 278 279 278 272 269 261
201 208 213 232 270 307 325 327 324 324 322 324 324 326 322 322 323 321 320 325 327 324 329 324 328 339 341 336 340 346 341 330 298 289 291 289 283 281 280 273 268 266 267
203 210 221 249 290 314 319 318 320 321 322 322 323 326 327 325 321 315 318 320 318 319 312 318 327 330 335 333 339 338 337 335 331 302 286 285 285 280 278 277 266 259 263
207 218 241 270 300 313 315 318 317 320 321 323 331 331 328 323 318 318 323 326 322 324 318 319 326 337 336 337 335 335 332 332 330 329 312 287 281 281 278 275 272 256 256
205 222 251 287 305 310 314 314 320 323 324 333 337 330 322 319 316 328 328 323 331 327 319 314 330 335 334 339 334 331 334 329 324 323 321 319 293 282 274 269 266 264 250
217 244 272 299 307 310 312 316 322 322 331 339 337 330 328 322 324 323 325 324 323 322 320 321 323 327 329 329 327 326 327 326 329 322 319 322 319 302 283 268 258 261 256
233 270 292 300 305 309 313 316 317 327 333 340 340 327 326 322 312 309 312 320 321 323 324 324 325 328 326 334 333 329 324 322 322 324 318 315 322 324 308 275 255 248 253
256 277 296 305 307 308 314 315 323 332 336 340 340 329 323 317 306 294 310 316 316 320 323 327 328 326 327 330 327 323 318 322 319 325 322 321 328 329 322 290 260 243 244
269 296 303 307 312 314 318 318 326 333 341 341 331 333 323 316 307 295 307 303 315 319 326 330 327 326 325 320 319 312 311 315 313 315 314 315 324 325 322 302 275 245 236
303 311 316 322 318 321 319 323 330 340 337 342 336 332 319 315 312 303 304 309 312 317 326 327 327 330 321 317 310 308 307 304 299 306 314 311 323 331 332 315 290 257 236
316 325 329 332 332 331 327 328 333 332 342 337 332 322 319 316 314 308 302 306 311 321 322 325 323 324 316 308 302 297 297 299 302 308 321 312 330 342 342 12 329 287 251
338 342 342 344 340 331 330 332 334 337 343 336 326 322 316 313 316 305 304 310 313 324 322 322 322 324 326 319 308 296 299 301 308 316 325 308 337 321 321 359 34 31 256
349 350 347 335 335 338 335 336 336 338 343 336 329 328 327 323 318 312 307 313 316 320 322 324 330 334 337 343 341 313 294 288 294 313 307 320 321 331 325 305 21 43 218